LBD2 ENBR-ENBR

Flight info

Callsign LBD2
Flight time 0h 16m
Altitude
Route
Aircraft

Departure

Time 2026-04-29 17:22
Airport Bergen Airport, Flesland (ENBR)

Arrival

Time 2026-04-29 17:38
Airport Bergen Airport, Flesland (ENBR)
Time Latitude Longitude Altitude Speed Heading
2026-04-29 17:13 60.29931 5.22636 139 ft 0 kts 290°
2026-04-29 17:17 60.29932 5.22633 139 ft 1 kts 276°
2026-04-29 17:17 60.29884 5.22628 137 ft 14 kts 174°
2026-04-29 17:17 60.29796 5.22546 141 ft 16 kts 229°
2026-04-29 17:17 60.29754 5.22354 140 ft 15 kts 262°
2026-04-29 17:18 60.29737 5.22142 141 ft 15 kts 259°
2026-04-29 17:18 60.29677 5.22027 141 ft 16 kts 173°
2026-04-29 17:18 60.29547 5.22069 146 ft 21 kts 171°
2026-04-29 17:18 60.29395 5.22120 152 ft 23 kts 170°
2026-04-29 17:19 60.29231 5.22176 156 ft 23 kts 171°
2026-04-29 17:19 60.29066 5.22230 156 ft 23 kts 170°
2026-04-29 17:19 60.28949 5.22259 155 ft 12 kts 191°
2026-04-29 17:19 60.28918 5.22166 152 ft 6 kts 261°
2026-04-29 17:20 60.28917 5.22154 152 ft 0 kts 261°
2026-04-29 17:20 60.28914 5.22115 152 ft 8 kts 260°
2026-04-29 17:21 60.28912 5.21967 156 ft 8 kts 315°
2026-04-29 17:21 60.28924 5.21956 156 ft 0 kts 349°
2026-04-29 17:21 60.29098 5.21899 156 ft 52 kts 350°
2026-04-29 17:22 60.29558 5.21743 241 ft 73 kts 349°
2026-04-29 17:22 60.29996 5.21244 439 ft 81 kts 300°
2026-04-29 17:22 60.29976 5.20027 706 ft 92 kts 262°
2026-04-29 17:22 60.29775 5.18750 883 ft 99 kts 246°
2026-04-29 17:23 60.29227 5.17904 1086 ft 108 kts 199°
2026-04-29 17:23 60.28462 5.18006 1205 ft 117 kts 167°
2026-04-29 17:23 60.27650 5.18425 1238 ft 122 kts 168°
2026-04-29 17:23 60.26853 5.18796 1212 ft 110 kts 168°
2026-04-29 17:24 60.26164 5.19202 1153 ft 98 kts 163°
2026-04-29 17:24 60.25543 5.19692 1078 ft 95 kts 147°
2026-04-29 17:24 60.25169 5.20717 978 ft 91 kts 102°
2026-04-29 17:24 60.25190 5.21975 873 ft 89 kts 72°
2026-04-29 17:25 60.25537 5.22860 759 ft 82 kts 16°
2026-04-29 17:25 60.26103 5.22866 632 ft 82 kts 352°
2026-04-29 17:25 60.26662 5.22721 530 ft 79 kts 348°
2026-04-29 17:25 60.27205 5.22540 418 ft 80 kts 348°
2026-04-29 17:26 60.27746 5.22361 313 ft 73 kts 346°
2026-04-29 17:26 60.28203 5.22200 215 ft 64 kts 346°
2026-04-29 17:26 60.28620 5.22056 160 ft 54 kts 349°
2026-04-29 17:26 60.28963 5.21941 156 ft 57 kts 350°
2026-04-29 17:27 60.29421 5.21798 283 ft 71 kts 348°
2026-04-29 17:27 60.29939 5.21633 504 ft 80 kts 348°
2026-04-29 17:27 60.30513 5.21414 772 ft 86 kts 348°
2026-04-29 17:27 60.30986 5.20695 976 ft 92 kts 297°
2026-04-29 17:28 60.30937 5.19387 1203 ft 100 kts 258°
2026-04-29 17:28 60.30691 5.17934 1185 ft 115 kts 249°
2026-04-29 17:28 60.30062 5.16946 1197 ft 122 kts 197°
2026-04-29 17:28 60.29216 5.17198 1181 ft 125 kts 159°
2026-04-29 17:29 60.28394 5.17728 1189 ft 125 kts 165°
2026-04-29 17:29 60.27554 5.18155 1221 ft 122 kts 170°
2026-04-29 17:29 60.26739 5.18478 1210 ft 114 kts 169°
2026-04-29 17:29 60.26234 5.18717 1159 ft 107 kts 167°
2026-04-29 17:30 60.25328 5.19130 1112 ft 98 kts 168°
2026-04-29 17:30 60.24660 5.19504 1084 ft 99 kts 164°
2026-04-29 17:30 60.23995 5.19816 1115 ft 97 kts 181°
2026-04-29 17:30 60.23366 5.19388 1117 ft 95 kts 224°
2026-04-29 17:31 60.23102 5.18297 1113 ft 85 kts 278°
2026-04-29 17:31 60.23438 5.17495 1141 ft 81 kts 346°
2026-04-29 17:31 60.23937 5.17991 1193 ft 92 kts 51°
2026-04-29 17:31 60.23911 5.19276 1196 ft 101 kts 117°
2026-04-29 17:32 60.23307 5.19928 1208 ft 102 kts 184°
2026-04-29 17:32 60.22788 5.19183 1194 ft 95 kts 256°
2026-04-29 17:32 60.22962 5.18065 1195 ft 86 kts 319°
2026-04-29 17:32 60.23522 5.17706 1206 ft 87 kts 358°
2026-04-29 17:33 60.24050 5.18225 1223 ft 93 kts 51°
2026-04-29 17:33 60.24063 5.19521 1238 ft 100 kts 115°
2026-04-29 17:33 60.23551 5.20411 1292 ft 102 kts 155°
2026-04-29 17:33 60.22843 5.20585 1274 ft 103 kts 190°
2026-04-29 17:34 60.22197 5.20045 1250 ft 101 kts 220°
2026-04-29 17:34 60.21792 5.18969 1260 ft 94 kts 255°
2026-04-29 17:34 60.21821 5.17753 1291 ft 86 kts 296°
2026-04-29 17:34 60.22184 5.16845 1308 ft 84 kts 324°
2026-04-29 17:35 60.23118 5.16291 1294 ft 86 kts 349°
2026-04-29 17:35 60.23904 5.16332 1281 ft 88 kts 14°
2026-04-29 17:35 60.24376 5.17119 1253 ft 94 kts 57°
2026-04-29 17:36 60.24563 5.18410 1198 ft 98 kts 73°
2026-04-29 17:36 60.24699 5.19732 1097 ft 94 kts 72°
2026-04-29 17:36 60.24886 5.20931 948 ft 86 kts 61°
2026-04-29 17:36 60.25161 5.21995 826 ft 83 kts 52°
2026-04-29 17:37 60.25564 5.22756 699 ft 79 kts 19°
2026-04-29 17:37 60.26086 5.22867 606 ft 75 kts 357°
2026-04-29 17:37 60.26602 5.22748 503 ft 75 kts 346°
2026-04-29 17:37 60.27115 5.22564 441 ft 74 kts 347°
2026-04-29 17:38 60.27605 5.22398 354 ft 68 kts 348°
2026-04-29 17:38 60.28047 5.22258 236 ft 60 kts 346°
2026-04-29 17:38 60.28442 5.22121 167 ft 53 kts 346°
2026-04-29 17:38 60.28784 5.22001 156 ft 48 kts 351°
2026-04-29 17:39 60.29187 5.21873 208 ft 69 kts 348°
2026-04-29 17:39 60.29691 5.21710 381 ft 74 kts 348°
2026-04-29 17:39 60.30194 5.21497 690 ft 75 kts 346°
2026-04-29 17:39 60.30671 5.21083 932 ft 78 kts 319°
2026-04-29 17:40 60.30806 5.20007 1144 ft 91 kts 262°
2026-04-29 17:40 60.30573 5.18700 1140 ft 107 kts 251°
2026-04-29 17:40 60.30007 5.17693 1166 ft 115 kts 201°
2026-04-29 17:40 60.29197 5.17677 1153 ft 120 kts 172°
2026-04-29 17:41 60.28370 5.18041 1154 ft 122 kts 166°
2026-04-29 17:41 60.27543 5.18422 1181 ft 121 kts 169°
2026-04-29 17:41 60.26754 5.18788 1193 ft 110 kts 167°
2026-04-29 17:41 60.26063 5.19175 1114 ft 100 kts 162°
2026-04-29 17:42 60.25557 5.20069 935 ft 98 kts 110°
2026-04-29 17:42 60.25565 5.21329 812 ft 91 kts 69°
2026-04-29 17:42 60.25772 5.22505 711 ft 85 kts 48°
2026-04-29 17:42 60.26302 5.22823 555 ft 79 kts 354°
2026-04-29 17:43 60.26834 5.22655 461 ft 75 kts 347°
2026-04-29 17:43 60.27325 5.22492 382 ft 69 kts 347°
2026-04-29 17:43 60.27780 5.22346 285 ft 62 kts 346°
2026-04-29 17:43 60.28183 5.22207 211 ft 58 kts 347°
2026-04-29 17:44 60.28568 5.22076 160 ft 51 kts 348°
2026-04-29 17:44 60.28874 5.21973 156 ft 51 kts 351°
2026-04-29 17:44 60.29307 5.21839 279 ft 67 kts 348°
2026-04-29 17:44 60.29767 5.21662 506 ft 71 kts 347°
2026-04-29 17:45 60.30281 5.21416 732 ft 81 kts 344°
2026-04-29 17:45 60.30661 5.20594 949 ft 88 kts 289°
2026-04-29 17:45 60.30569 5.19324 1134 ft 100 kts 257°
2026-04-29 17:45 60.30278 5.17995 1138 ft 111 kts 230°
2026-04-29 17:46 60.29544 5.17522 1155 ft 118 kts 176°
2026-04-29 17:46 60.28721 5.17854 1117 ft 122 kts 167°
2026-04-29 17:46 60.27889 5.18071 1130 ft 120 kts 184°
2026-04-29 17:46 60.27114 5.17613 1188 ft 114 kts 214°
2026-04-29 17:47 60.26680 5.16396 1241 ft 108 kts 262°
2026-04-29 17:47 60.26873 5.15032 1276 ft 104 kts 317°
2026-04-29 17:47 60.27550 5.14780 1298 ft 108 kts 20°
2026-04-29 17:47 60.28249 5.15305 1267 ft 108 kts 358°
2026-04-29 17:48 60.28997 5.15231 1250 ft 108 kts 356°
2026-04-29 17:48 60.29736 5.15108 1242 ft 106 kts 352°
2026-04-29 17:48 60.30468 5.14996 1240 ft 106 kts 355°
2026-04-29 17:48 60.31204 5.15120 1236 ft 107 kts
2026-04-29 17:49 60.31922 5.15466 1253 ft 107 kts 21°
2026-04-29 17:49 60.32375 5.16614 1295 ft 112 kts 77°
2026-04-29 17:49 60.32022 5.17970 1293 ft 124 kts 151°
2026-04-29 17:49 60.31145 5.18108 1191 ft 129 kts 180°
2026-04-29 17:50 60.30243 5.18261 1195 ft 127 kts 177°
2026-04-29 17:50 60.29394 5.18452 1183 ft 124 kts 175°
2026-04-29 17:50 60.28538 5.18534 1152 ft 122 kts 181°
2026-04-29 17:50 60.27684 5.18597 1139 ft 121 kts 178°
2026-04-29 17:51 60.26878 5.18744 1139 ft 110 kts 176°
2026-04-29 17:51 60.26387 5.18877 1113 ft 107 kts 174°
2026-04-29 17:51 60.25728 5.19451 950 ft 102 kts 136°
2026-04-29 17:51 60.25467 5.20671 824 ft 92 kts 84°
2026-04-29 17:52 60.25551 5.21903 749 ft 87 kts 69°
2026-04-29 17:52 60.25923 5.22689 633 ft 81 kts 17°
2026-04-29 17:52 60.26644 5.22732 526 ft 78 kts 347°
2026-04-29 17:52 60.27182 5.22550 435 ft 77 kts 347°
2026-04-29 17:53 60.27538 5.22430 381 ft 76 kts 349°
2026-04-29 17:53 60.28033 5.22267 278 ft 68 kts 346°
2026-04-29 17:53 60.28499 5.22103 216 ft 68 kts 347°
2026-04-29 17:53 60.28942 5.21954 169 ft 59 kts 347°
2026-04-29 17:54 60.29313 5.21824 149 ft 49 kts 350°
2026-04-29 17:54 60.29612 5.21726 142 ft 32 kts 350°
2026-04-29 17:54 60.29713 5.21851 142 ft 17 kts 79°
2026-04-29 17:54 60.29719 5.21929 141 ft 0 kts 81°
2026-04-29 17:55 60.29720 5.21934 141 ft 3 kts 81°
2026-04-29 17:55 60.29731 5.22066 141 ft 16 kts 80°
2026-04-29 17:55 60.29754 5.22354 140 ft 18 kts 81°
2026-04-29 17:56 60.29821 5.22593 142 ft 21 kts 38°
2026-04-29 17:56 60.29935 5.22677 139 ft 8 kts 341°
2026-04-29 17:56 60.29938 5.22610 139 ft 5 kts 174°
2026-04-29 17:56 60.29931 5.22637 139 ft 0 kts 99°